Tracking 35334 objects as of 13-Sep-2026
HD Live streaming from Space Station
objects crossing your sky now

STARLINK-36910

Track STARLINK-36910 now!
10-day predictions
STARLINK-36910 is classified as:


NORAD ID: 68005
Int'l Code: 2026-039V
Launch date: February 27, 2026
Source: United States (US)
Launch site: AIR FORCE WESTERN TEST RANGE (AFWTR)
Your satellite tracking list
Your tracking list is empty




NASA's NSSDC Master Catalog

Two Line Element Set (TLE):
1 68005U 26039V   26255.91133637  .00019540  00000-0  71785-3 0  9992
2 68005  43.0006  71.8459 0001714 260.8469  99.2189 15.27572618 30337
Source of the keplerian elements: AFSPC